Flag for Germany Weather past 2 weeks in Meissen, Saxony, Germany

Now
68 °F

Sunny.


Feels Like: 68 °F
Forecast: 56 / 70 °F
Wind: 14 mph from Southeast

Location: Dresden-Klotzsche

Current Time: Sep 18, 2014 at 2:12:14 PM

Latest Report: Sep 18, 2014 at 1:50 PM


Visibility: 10 mi

Pressure: 29.98 "Hg

Humidity: 60%

Dew point: 54 °F

Location of MeissenLocation

Historic Weather in Meissen — Graph

°F

Meissen temperature yesterday

Maximum temperature yesterday: 73 °F (at 1:50 PM)
Minimum temperature yesterday: 57 °F (at 4:50 AM)
Average temperature yesterday: 65 °F

Past Weeks' High & Low Weather Summary

 TemperatureHumidityPressure
High81 °F (Sep 6, 2:20 PM)100% (Sep 4, 1:50 AM)30.24 "Hg (Sep 4, 1:50 AM)
Low52 °F (Sep 4, 3:50 AM)44% (Sep 17, 2:50 PM)29.89 "Hg (Sep 6, 2:50 PM)
Average63 °F84%30.03 "Hg
* Reported Sep 3 12:20 PM — Sep 18 12:50 PM, Meissen, Weather by CustomWeather, © 2014

Note: Actual official high and low records may vary slightly from our data, if they occured in-between our weather recording intervals... More about our weather records

Advertising

Meissen weather history for previous 24 hours

 ConditionsComfort  
Time TempWeatherWind HumidityBarometerVisibility
12:50 PM
Sep 18
68 °FSunny.10 mph60%29.98 "Hg10 mi
12:20 PM68 °FSunny.14 mph64%29.98 "Hg10 mi
11:50 AM66 °FSunny.14 mph64%29.98 "Hg10 mi
11:20 AM66 °FSunny.13 mph64%29.98 "Hg10 mi
10:50 AM64 °FSunny.13 mph68%29.98 "Hg10 mi
10:20 AM64 °FSunny.12 mph68%29.98 "Hg10 mi
9:50 AM63 °FSunny.14 mph73%29.95 "Hg10 mi
9:20 AM63 °FSunny.13 mph73%29.95 "Hg10 mi
8:50 AM61 °FSunny.12 mph77%29.95 "Hg10 mi
8:20 AM61 °FSunny.12 mph77%29.95 "Hg10 mi
7:50 AM59 °FSunny.13 mph82%29.95 "Hg10 mi
7:20 AM57 °FClear.12 mph88%29.95 "Hg10 mi
6:50 AM57 °FClear.12 mph88%29.95 "Hg10 mi
6:20 AM57 °FClear.9 mph88%29.95 "Hg10 mi
5:50 AM57 °FClear.9 mph88%29.95 "Hg10 mi
5:20 AM57 °FClear.9 mph88%29.95 "Hg10 mi
4:50 AM57 °FClear.9 mph88%29.98 "Hg10 mi
4:20 AM57 °FClear.8 mph88%29.98 "Hg10 mi
3:50 AM59 °FClear.7 mph82%29.98 "Hg10 mi
3:20 AM59 °FClear.7 mph82%29.98 "Hg10 mi
2:50 AM59 °FClear.8 mph82%29.98 "Hg10 mi
2:20 AM61 °FClear.9 mph77%29.98 "Hg10 mi
1:50 AM61 °FClear.9 mph77%29.98 "Hg10 mi
1:20 AM61 °FClear.9 mph77%29.98 "Hg10 mi
12:50 AM61 °FClear.8 mph77%29.98 "Hg10 mi
12:20 AM61 °FClear.8 mph77%29.98 "Hg10 mi
11:50 PM
Sep 17
61 °FClear.9 mph77%29.98 "Hg10 mi
11:20 PM63 °FClear.9 mph73%29.98 "Hg10 mi
10:50 PM63 °FClear.9 mph73%29.98 "Hg10 mi
10:20 PM63 °FClear.8 mph73%29.98 "Hg10 mi
9:50 PM64 °FClear.9 mph68%29.98 "Hg10 mi
9:20 PM64 °FClear.9 mph68%29.98 "Hg10 mi
8:50 PM64 °FClear.9 mph68%29.98 "Hg10 mi
8:20 PM66 °FClear.9 mph68%29.98 "Hg10 mi
7:50 PM66 °FSunny.8 mph64%29.98 "Hg10 mi
7:20 PM68 °FSunny.9 mph60%29.98 "Hg10 mi
6:50 PM70 °FSunny.7 mph57%29.98 "Hg10 mi
6:20 PM70 °FSunny.10 mph57%29.98 "Hg10 mi
5:50 PM72 °FSunny.12 mph53%29.98 "Hg10 mi
5:20 PM72 °FSunny.10 mph53%29.98 "Hg10 mi
4:50 PM73 °FSunny.16 mph47%29.98 "Hg10 mi
4:20 PM73 °FPassing clouds.13 mph50%29.98 "HgN/A
3:50 PM73 °FPassing clouds.14 mph47%29.98 "HgN/A
3:20 PM73 °FPassing clouds.14 mph47%29.98 "HgN/A
2:50 PM73 °FPassing clouds.14 mph44%29.98 "HgN/A
2:20 PM73 °FPassing clouds.13 mph47%30.01 "HgN/A
Weather by CustomWeather, © 2014

See weather overviewHow to use our weather pages